TIANMU-1 19

Last updated on Fri Sep 11 2026 00:02:39 GMT+0000 (Coordinated Universal Time)

1 58660U 23208A 26253.58047875 .00006262 00000+0 20051-3 0 9998 2 58660 97.4572 10.4204 0005186 28.4606 331.6918 15.32741025150409
UTC large
Height (km)
Speed (km/s)
/
Latitude / Longitude
Inclination (degrees)
Orbital Period (minutes)
Azimuth
Elevation
Range (km)
Doppler Factor

Next 0 passes for location: London (51.5072 / 0.1276)

No passes found over London.
TIANMU-1 19